Opa Locka, FL

6:44 PM EDT on October 18, 2017 (GMT -0400)
Opa Locka

Weather History for KOPF - November, 2012

Change the Weather History Date:

Sunday, November 11, 2012

  Actual Average Record
Temperature  
Mean Temperature 76 °F -  
Max Temperature 81 °F 81 °F 88 °F (2002)
Min Temperature 70 °F 63 °F 50 °F (1962)
Cooling Degree Days 10    
Growing Degree Days 26 (Base 50)    
Moisture  
Dew Point 59 °F    
Average Humidity 57    
Maximum Humidity 73    
Minimum Humidity 42    
Precipitation  
Precipitation 0.00 in - - ()
Sea Level Pressure  
Sea Level Pressure 30.20 in    
Wind  
Wind Speed 13 mph (East)    
Max Wind Speed 21 mph    
Max Gust Speed 33 mph    
Visibility 10 miles    
Events Rain    
Averages and records for this station are not official NWS values.
T = Trace of Precipitation, MM = Missing Value Source: NWS Daily Summary

Daily Weather History Graph

Daily Weather History Graph

Search for Another Location

Airport or City:

Trip Planner

Search our weather history database for the weather conditions in past years. The results will help you decide how hot, cold, wet, or windy it might be!

Date:

Astronomy

Nov. 11, 2012 Rise Set
Actual Time 6:36 AM EST 5:33 PM EST
Civil Twilight 6:12 AM EST 5:57 PM EST
Nautical Twilight 5:44 AM EST 6:25 PM EST
Astronomical Twilight 5:17 AM EST 6:52 PM EST
Moon 4:01 AM EST (11/11) 3:46 PM EST (11/11)
Length of Visible Light 11h 45m
Length of Day
10h 56m
Waning Crescent, 7% of the Moon is Illuminated
Nov 11
Waning Crescent
Nov 13
New
Nov 20
First Quarter
Nov 28
Full
Dec 6
Last Quarter

Hourly Weather History & Observations

Time (EST) Temp. Heat Index Dew Point Humidity Pressure Visibility Wind Dir Wind Speed Gust Speed Precip Events Conditions
12:53 AM 73.0 °F - 57.9 °F 59% 30.20 in 10.0 mi ENE 12.7 mph - N/A   Overcast
1:53 AM 70.0 °F - 60.1 °F 71% 30.19 in 10.0 mi East 6.9 mph - N/A   Scattered Clouds
2:53 AM 72.0 °F - 55.0 °F 55% 30.17 in 10.0 mi East 11.5 mph - N/A   Partly Cloudy
3:53 AM 71.1 °F - 55.0 °F 57% 30.17 in 10.0 mi ESE 5.8 mph - N/A   Partly Cloudy
4:53 AM 71.1 °F - 55.0 °F 57% 30.19 in 10.0 mi East 9.2 mph - N/A   Mostly Cloudy
5:53 AM 72.0 °F - 55.9 °F 57% 30.19 in 10.0 mi East 8.1 mph - N/A   Mostly Cloudy
6:53 AM 73.0 °F - 57.0 °F 57% 30.20 in 10.0 mi East 15.0 mph 19.6 mph N/A   Overcast
7:53 AM 75.9 °F - 59.0 °F 56% 30.22 in 10.0 mi East 16.1 mph 21.9 mph N/A   Mostly Cloudy
8:53 AM 78.1 °F - 57.0 °F 48% 30.23 in 10.0 mi East 18.4 mph - N/A   Partly Cloudy
9:53 AM 80.1 °F 80.1 °F 55.0 °F 42% 30.24 in 10.0 mi East 18.4 mph 26.5 mph N/A   Mostly Cloudy
11:53 AM 78.1 °F - 59.0 °F 52% 30.23 in 10.0 mi East 20.7 mph 28.8 mph N/A   Mostly Cloudy
12:53 PM 79.0 °F - 57.9 °F 48% 30.20 in 10.0 mi East 19.6 mph - N/A   Mostly Cloudy
1:53 PM 81.0 °F 81.3 °F 59.0 °F 47% 30.19 in 10.0 mi East 16.1 mph 33.4 mph N/A   Mostly Cloudy
2:53 PM 78.1 °F - 59.0 °F 52% 30.18 in 10.0 mi East 16.1 mph - N/A   Partly Cloudy
3:53 PM 78.1 °F - 59.0 °F 52% 30.19 in 10.0 mi East 18.4 mph 25.3 mph N/A   Scattered Clouds
4:53 PM 77.0 °F - 57.9 °F 52% 30.18 in 10.0 mi East 13.8 mph - N/A   Clear
5:53 PM 75.0 °F - 57.0 °F 53% 30.19 in 10.0 mi East 12.7 mph - N/A   Clear
6:53 PM 73.9 °F - 60.1 °F 62% 30.20 in 10.0 mi East 10.4 mph - N/A   Clear
7:53 PM 73.9 °F - 59.0 °F 59% 30.21 in 10.0 mi East 10.4 mph 20.7 mph N/A   Clear
8:53 PM 73.9 °F - 61.0 °F 64% 30.21 in 10.0 mi East 13.8 mph - N/A   Partly Cloudy
9:53 PM 73.0 °F - 63.0 °F 71% 30.22 in 10.0 mi East 8.1 mph - N/A   Overcast
10:53 PM 73.9 °F - 64.9 °F 73% 30.21 in 10.0 mi ESE 15.0 mph - 0.00 in Rain Light Rain
11:53 PM 75.0 °F - 64.0 °F 69% 30.20 in 10.0 mi ESE 12.7 mph - 0.00 in   Scattered Clouds